884  
ASUS42 KMHX 260813  
RWRMHX  
WEATHER ROUNDUP FOR EASTERN NORTH CAROLINA  
NATIONAL WEATHER SERVICE NEWPORT/MOREHEAD CITY NC  
400 AM EDT FRI AUG 26 2016  
 
NOTE: "FAIR" INDICATES FEW OR NO CLOUDS BELOW 12,000 FEET  
WITH NO SIGNIFICANT WEATHER AND/OR S TO VISIBILITY
 
 
NCZ015>017-031-032-045>047-102-103-260900-  
NORTH COAST  
 
CITY SKY/WX TMP DP RH WIND PRES REMARKS
 
EDENTON FAIR 78 69 73 SW5 30.09S  
ELIZABETH CITY FAIR 73 69 87 SW3 30.09R  
KITTY HAWK FAIR 77 71 82 SW3 30.08R  
MANTEO FAIR 77 69 77 SW7 30.09S  
 

 
 
NCZ045>047-081-094-103-104-260900-  
CENTRAL COAST  
 
CITY SKY/WX TMP DP RH WIND PRES REMARKS
 
FRISCO FAIR 78 65 63 SW3 30.09R  
 

 
 
NCZ095-097-098-100-101-260900-  
SOUTHERN COAST  
 
CITY SKY/WX TMP DP RH WIND PRES REMARKS
 
BEAUFORT FAIR 72 68 87 CALM 30.09S  
CEDAR ISLAND NOT AVBL  
JACKSONVILLE FAIR 71 67 87 CALM 30.09S  
PINEY ISLAND NOT AVBL  
WILMINGTON FAIR 71 68 90 CALM 30.09S  
 

 
 
NCZ011>013-027>030-043-044-078>080-089-090>093-098-260900-  
COASTAL PLAIN  
 
CITY SKY/WX TMP DP RH WIND PRES REMARKS
 
AHOSKIE FAIR 71 67 89 CALM 30.08F  
CLINTON FAIR 71 71 99 CALM 30.10S  
ELIZABETHTOWN FAIR 73 70 91 CALM 30.09F  
GOLDSBORO FAIR 73 72 96 SW2 30.08S  
GREENVILLE FAIR 72 70 94 SW3 30.11S  
HAVELOCK FAIR 71 67 87 CALM 30.10S  
KENANSVILLE FAIR 68 66 94 CALM 30.10S  
KINSTON FAIR 70 68 93 CALM 30.10S  
NEW BERN FAIR 70 68 93 CALM 30.11R  
RICHLANDS FAIR 68 67 96 CALM 30.10S  
ROCKY MOUNT FAIR 72 70 93 SW5 30.09S  
WASHINGTON FAIR 72 68 88 CALM 30.10R  
WHITEVILLE FAIR 71 69 94 CALM 30.09S  
 

 
 
AMZ130-135-150-152-154-156-158-170-250-252-270-ANZ085-086-088-633-658-670-260900-  
MARINE OBSERVATIONS  
 
STATION/POSITION TIME TEMP WIND PRES WAVE SWELL
 
AIR SEA DIR/SP/G HT/PER HT/PER  
(UTC) (F) (DEG/KT/KT) (MB) (FT/S) (FT/S)  
CHESAPEAKE LIGHT NOT AVBL  
64 E VA BEACH 0750 80 80 210/ 12/ 14 1018.2 3/ 8 2/ 8  
DUCK 0700 79 79 210/ 9/ 13 1018.0  
2 E DUCK 0711 78 N/A 2/ 9  
OREGON INLET 0700 79 80 180/ 9/ 10 1018.5  
13E OREGON INLT 0800 78 N/A 2/ 8 2/ 8  
HATTERAS CG 0700 80 81 180/ 3/ 5 1018.5  
DIAMOND BUOY 0750 80 83 180/ 4/ 6 1018.8 3/ 8 3/ 8  
CAPE LOOKOUT 0800 79 200/ 3/ 4 1018.6  
BEAUFORT LAB 0700 80 81 170/ 3/ 5 1018.2  
30 SE NEW RVR IN 0708 81 84 140/ 6/ 10 1018.7  
30 SE NEW RVR IN 0725 84 N/A 3/ 8  
27 SE WRIGHTSVLE 0708 81 83 130/ 4/ 6 1018.9  
5 SE WRIGHTSVLE 0708 81 83 190/ 4/ 8 1019.8  
225 S CAPE HAT 0750 81 84 30/ 6/ 10 1016.5 3/ 6 3/ 6  
41 SE CHARLESTON 0750 83 85 70/ 4/ 6 1017.8 3/ 9 3/ 9  
 

 
 
 
CLICK HERE TO GO TO PREVIOUS BULLETINS.

The Nexlab NC Page Main Text Page